KD8NVS-13 Weather Reports


Display with metric or nautical units.
time (UTC)temp
F
wind
direction
speed
MPH
gust
MPH
rain 1hr
in
rain 24hr
in
rain mn
in
humidity
%
barometer
mb
20260510204438 67 258 11.0 12.0 0.00 0.00 0.00 40 1007.0
20260510203933 67 253 3.0 3.0 0.00 0.00 0.00 40 1006.7
20260510203432 68 258 4.0 4.0 0.00 0.00 0.00 39 1007.0
20260510202926 68 256 4.0 4.0 0.00 0.00 0.00 40 1007.0
20260510202422 67 263 1.0 1.0 0.00 0.00 0.00 39 1007.0
20260510201919 66 254 3.0 3.0 0.00 0.00 0.00 42 1006.3
20260510201416 67 259 3.0 4.0 0.00 0.00 0.00 41 1007.0
20260510200912 67 112 3.0 3.0 0.00 0.00 0.00 42 1007.0
20260510200412 66 275 2.0 2.0 0.00 0.00 0.00 41 1007.0
20260510195906 67 265 2.0 2.0 0.00 0.00 0.00 40 1007.0
20260510195404 67 252 7.0 7.0 0.00 0.00 0.00 42 1007.0
20260510194858 66 253 3.0 4.0 0.00 0.00 0.00 40 1007.0
20260510194355 67 260 5.0 6.0 0.00 0.00 0.00 40 1007.0
20260510193850 67 266 6.0 6.0 0.00 0.00 0.00 41 1007.0
20260510193345 66 265 6.0 6.0 0.00 0.00 0.00 41 1007.0
20260510192841 66 120 2.0 2.0 0.00 0.00 0.00 41 1007.0
20260510192337 68 12 0.0 0.0 0.00 0.00 0.00 43 1006.7
20260510191833 67 246 1.0 1.0 0.00 0.00 0.00 40 1007.0
20260510191329 67 256 5.0 6.0 0.00 0.00 0.00 40 1007.0
20260510190827 66 259 6.0 6.0 0.00 0.00 0.00 40 1007.0
20260510190324 67 258 8.0 9.0 0.00 0.00 0.00 40 1007.0
20260510185815 67 260 2.0 2.0 0.00 0.00 0.00 41 1007.0
20260510185313 66 255 5.0 5.0 0.00 0.00 0.00 41 1007.0
20260510184810 66 255 5.0 5.0 0.00 0.00 0.00 41 1007.0
20260510184306 66 258 4.0 4.0 0.00 0.00 0.00 41 1006.7
20260510183801 66 253 6.0 6.0 0.00 0.00 0.00 42 1007.0
20260510183256 66 252 3.0 4.0 0.00 0.00 0.00 44 1007.0
20260510182752 67 256 6.0 6.0 0.00 0.00 0.00 42 1006.7
20260510182249 66 258 3.0 3.0 0.00 0.00 0.00 43 1007.0
20260510181746 66 255 7.0 8.0 0.00 0.00 0.00 42 1007.0
20260510181243 66 276 4.0 4.0 0.00 0.00 0.00 43 1007.0
20260510180739 66 102 5.0 5.0 0.00 0.00 0.00 44 1007.0
20260510180236 66 269 4.0 4.0 0.00 0.00 0.00 43 1007.0
20260510175733 65 252 3.0 3.0 0.00 0.00 0.00 44 1007.0
20260510175228 64 259 1.0 1.0 0.00 0.00 0.00 44 1006.7
20260510174726 65 96 6.0 6.0 0.00 0.00 0.00 44 1006.7
20260510174223 65 170 2.0 2.0 0.00 0.00 0.00 43 1006.7
20260510173719 66 146 1.0 1.0 0.00 0.00 0.00 44 1006.7
20260510173215 65 257 2.0 2.0 0.00 0.00 0.00 44 1007.0
20260510172710 65 254 6.0 6.0 0.00 0.00 0.00 43 1007.0
20260510172207 65 102 3.0 4.0 0.00 0.00 0.00 43 1007.0
20260510171703 65 270 7.0 7.0 0.00 0.00 0.00 41 1006.7
20260510171201 65 101 3.0 3.0 0.00 0.00 0.00 42 1006.7
20260510170658 64 252 4.0 4.0 0.00 0.00 0.00 42 1006.7
20260510170154 64 112 2.0 2.0 0.00 0.00 0.00 42 1006.7
20260510165650 65 120 5.0 5.0 0.00 0.00 0.00 43 1006.7
20260510165146 65 258 3.0 3.0 0.00 0.00 0.00 42 1007.0
20260510164644 65 113 3.0 3.0 0.00 0.00 0.00 43 1007.0
20260510164141 64 252 3.0 3.0 0.00 0.00 0.00 44 1006.7
20260510163636 64 261 7.0 7.0 0.00 0.00 0.00 44 1007.0
20260510163131 64 254 8.0 8.0 0.00 0.00 0.00 44 1007.0
20260510162626 64 269 5.0 5.0 0.00 0.00 0.00 45 1007.0
20260510162123 64 265 2.0 2.0 0.00 0.00 0.00 45 1007.0
20260510161619 63 114 0.0 0.0 0.00 0.00 0.00 49 1006.7
20260510161116 64 120 2.0 2.0 0.00 0.00 0.00 48 1007.0
20260510160613 63 266 7.0 7.0 0.00 0.00 0.00 47 1006.7
20260510160113 63 260 1.0 1.0 0.00 0.00 0.00 45 1006.7
20260510155609 62 107 5.0 5.0 0.00 0.00 0.00 50 1006.7
20260510155106 62 108 0.0 0.0 0.00 0.00 0.00 51 1006.7
20260510154601 62 108 2.0 2.0 0.00 0.00 0.00 51 1006.7
20260510154056 62 96 1.0 1.0 0.00 0.00 0.00 52 1006.7
20260510153552 62 96 1.0 1.0 0.00 0.00 0.00 52 1006.7
20260510153049 62 255 6.0 6.0 0.00 0.00 0.00 52 1006.7
20260510152545 62 270 2.0 2.0 0.00 0.00 0.00 52 1006.3
20260510152042 61 270 5.0 5.0 0.00 0.00 0.00 53 1006.3
20260510151538 61 230 2.0 2.0 0.00 0.00 0.00 52 1005.9
20260510151036 61 108 5.0 6.0 0.00 0.00 0.00 53 1005.9
20260510150531 61 234 3.0 3.0 0.00 0.00 0.00 54 1005.9
20260510150027 61 159 3.0 3.0 0.00 0.00 0.00 55 1005.9
20260510145524 60 216 3.0 3.0 0.00 0.00 0.00 56 1005.9
20260510145021 60 91 2.0 2.0 0.00 0.00 0.00 55 1005.9
20260510144517 60 112 4.0 5.0 0.00 0.00 0.00 57 1005.5
20260510144013 60 102 5.0 5.0 0.00 0.00 0.00 57 1005.5
20260510143509 60 111 4.0 4.0 0.00 0.00 0.00 57 1005.5
20260510143006 60 202 3.0 3.0 0.00 0.00 0.00 56 1005.2
20260510142502 60 252 2.0 2.0 0.00 0.00 0.00 58 1005.2
20260510141959 60 96 6.0 6.0 0.00 0.00 0.00 56 1005.2
20260510141455 59 96 4.0 4.0 0.00 0.00 0.00 58 1005.2
20260510140953 58 96 4.0 4.0 0.00 0.00 0.00 59 1005.2
20260510140449 58 112 3.0 3.0 0.00 0.00 0.00 59 1005.2
20260510135948 58 101 6.0 6.0 0.00 0.00 0.00 60 1005.2
20260510135444 58 260 2.0 2.0 0.00 0.00 0.00 61 1005.2
20260510134941 58 96 5.0 6.0 0.00 0.00 0.00 61 1005.2
20260510134438 58 105 3.0 3.0 0.00 0.00 0.00 64 1005.2
20260510133935 58 108 2.0 2.0 0.00 0.00 0.00 64 1004.9
20260510133431 58 108 2.0 2.0 0.00 0.00 0.00 64 1005.2
20260510132926 58 96 2.0 2.0 0.00 0.00 0.00 64 1005.2
20260510132424 58 112 2.0 2.0 0.00 0.00 0.00 65 1005.2
20260510131921 58 228 4.0 4.0 0.00 0.00 0.00 64 1005.2
20260510131418 57 126 2.0 2.0 0.00 0.00 0.00 68 1004.5
20260510130914 56 126 2.0 2.0 0.00 0.00 0.00 69 1004.9
20260510130406 56 108 2.0 2.0 0.00 0.00 0.00 69 1004.9
20260510125903 56 114 1.0 1.0 0.00 0.00 0.00 70 1004.9
20260510125359 56 118 2.0 2.0 0.00 0.00 0.00 71 1004.9
20260510124856 56 114 2.0 2.0 0.00 0.00 0.00 72 1004.5
20260510124353 56 258 3.0 3.0 0.00 0.00 0.00 73 1004.5
20260510123849 56 118 2.0 2.0 0.00 0.00 0.00 70 1004.5
20260510123344 56 96 2.0 2.0 0.00 0.00 0.00 71 1004.2
20260510122841 56 108 2.0 2.0 0.00 0.00 0.00 74 1004.2
20260510122336 56 108 0.0 0.0 0.00 0.00 0.00 75 1004.5
20260510121833 56 120 0.0 0.0 0.00 0.00 0.00 75 1004.5
20260510121331 56 114 2.0 2.0 0.00 0.00 0.00 74 1004.2
20260510120828 56 120 2.0 2.0 0.00 0.00 0.00 74 1004.2
20260510120325 56 108 2.0 2.0 0.00 0.00 0.00 72 1004.2
20260510115820 56 108 2.0 2.0 0.00 0.00 0.00 73 1004.2
20260510115318 56 102 2.0 2.0 0.00 0.00 0.00 75 1003.8
20260510114813 56 168 1.0 1.0 0.00 0.00 0.00 76 1003.8
20260510114311 56 255 2.0 2.0 0.00 0.00 0.00 76 1003.8
20260510113805 57 197 2.0 2.0 0.00 0.00 0.00 76 1003.5
20260510113303 57 120 2.0 2.0 0.00 0.00 0.00 75 1003.5
20260510112759 57 265 2.0 2.0 0.00 0.00 0.00 75 1003.5
20260510112256 57 106 2.0 2.0 0.00 0.00 0.00 74 1003.2
20260510111752 57 294 0.0 0.0 0.00 0.00 0.00 73 1003.5
20260510111249 57 258 5.0 5.0 0.00 0.00 0.00 73 1003.5
20260510110748 57 270 2.0 2.0 0.00 0.00 0.00 73 1003.5
20260510110247 57 267 1.0 1.0 0.00 0.00 0.00 75 1003.2
20260510105747 57 267 2.0 2.0 0.00 0.00 0.00 75 1003.5
20260510105241 57 270 2.0 2.0 0.00 0.00 0.00 76 1002.8
20260510104738 57 270 3.0 3.0 0.00 0.00 0.00 77 1002.8
20260510104236 57 270 2.0 2.0 0.00 0.00 0.00 77 1002.8
20260510103731 58 270 3.0 3.0 0.00 0.00 0.00 76 1002.8
20260510103229 57 270 3.0 4.0 0.00 0.00 0.00 76 1002.5
20260510102723 57 270 2.0 2.0 0.00 0.00 0.00 76 1002.5
20260510102219 57 270 2.0 2.0 0.00 0.00 0.00 77 1002.1
20260510101717 57 270 2.0 2.0 0.00 0.00 0.00 77 1002.1
20260510101215 57 270 2.0 2.0 0.00 0.00 0.00 78 1001.8
20260510100710 57 270 2.0 2.0 0.00 0.00 0.00 80 1002.1
20260510100209 57 270 0.0 0.0 0.00 0.00 0.00 81 1001.8
20260510095704 56 270 2.0 2.0 0.00 0.00 0.00 83 1001.8
20260510095159 56 270 2.0 2.0 0.00 0.00 0.00 86 1001.8
20260510094658 55 270 0.0 0.0 0.00 0.00 0.00 91 1001.8
20260510094154 55 270 0.0 0.0 0.00 0.00 0.00 91 1001.8
20260510093650 55 270 0.0 0.0 0.00 0.00 0.00 90 1001.5
20260510093148 56 270 0.0 0.0 0.00 0.00 0.00 90 1001.8
20260510092644 56 270 0.0 0.0 0.00 0.00 0.00 90 1001.5
20260510092139 56 270 0.0 0.0 0.00 0.00 0.00 90 1001.1
20260510091635 56 270 0.0 0.0 0.00 0.00 0.00 89 1001.5
20260510091132 57 270 0.0 0.0 0.00 0.00 0.00 87 1001.1
20260510090629 57 270 0.0 0.0 0.00 0.00 0.00 87 1000.8
20260510090125 57 270 2.0 2.0 0.00 0.00 0.00 87 1000.8
20260510085620 57 271 2.0 2.0 0.00 0.00 0.00 86 1000.8
20260510085116 57 271 2.0 2.0 0.00 0.00 0.00 87 1000.8
20260510084612 58 271 0.0 0.0 0.00 0.00 0.00 86 1000.5
20260510084109 58 271 0.0 0.0 0.00 0.00 0.00 85 1000.5
20260510083606 59 271 1.0 1.0 0.00 0.00 0.00 84 1000.5
20260510083102 58 271 2.0 2.0 0.00 0.00 0.00 84 1000.5
20260510082559 58 271 2.0 2.0 0.00 0.00 0.00 85 1000.5
20260510082054 58 270 2.0 2.0 0.00 0.00 0.00 86 1000.5
20260510081549 58 270 0.0 0.0 0.00 0.00 0.00 85 1000.1
20260510081045 59 270 0.0 0.0 0.00 0.00 0.00 83 1000.1
20260510080544 59 270 0.0 0.0 0.00 0.00 0.00 83 1000.1
20260510080042 58 270 0.0 0.0 0.00 0.00 0.00 86 1000.1
20260510075539 58 270 0.0 0.0 0.00 0.00 0.00 86 999.8
20260510075036 59 270 0.0 0.0 0.00 0.00 0.00 85 999.8
20260510074533 60 270 0.0 0.0 0.00 0.00 0.00 82 999.8
20260510074028 60 270 0.0 0.0 0.00 0.00 0.00 81 1000.1
20260510073524 61 270 2.0 2.0 0.00 0.00 0.00 81 999.8
20260510073022 60 271 3.0 3.0 0.00 0.00 0.00 81 1000.1
20260510072519 60 271 2.0 2.0 0.00 0.00 0.00 81 1000.1
20260510072014 61 271 0.0 0.0 0.00 0.00 0.00 82 1000.1
20260510071510 61 265 2.0 2.0 0.00 0.00 0.00 82 1000.1
20260510071009 61 264 2.0 2.0 0.00 0.00 0.00 82 1000.5
20260510070505 60 265 3.0 3.0 0.00 0.00 0.00 82 1000.1
20260510070002 60 265 2.0 2.0 0.00 0.00 0.00 82 1000.1
20260510065458 61 270 0.0 0.0 0.00 0.00 0.00 83 1000.1
20260510064954 61 270 0.0 0.0 0.00 0.00 0.00 82 1000.1
20260510064451 61 270 2.0 2.0 0.00 0.00 0.00 82 1000.1
20260510063948 61 270 2.0 2.0 0.00 0.00 0.00 81 1000.1
20260510063444 61 270 2.0 2.0 0.00 0.00 0.00 81 1000.1
20260510062942 61 270 2.0 2.0 0.00 0.00 0.00 80 1000.1
20260510062437 61 270 0.0 0.0 0.00 0.00 0.00 80 1000.1
20260510061932 62 270 0.0 0.0 0.00 0.00 0.00 79 1000.5
20260510061430 62 270 2.0 2.0 0.00 0.00 0.00 79 1000.8
20260510060925 62 270 2.0 2.0 0.00 0.00 0.00 79 1000.5
20260510060423 62 276 2.0 2.0 0.00 0.00 0.00 79 1000.5
20260510055919 62 300 2.0 2.0 0.00 0.00 0.00 79 1000.5
20260510055414 62 187 2.0 2.0 0.00 0.00 0.00 79 1000.5
20260510054907 62 271 2.0 2.0 0.00 0.00 0.00 78 1000.5
20260510054403 62 266 2.0 2.0 0.00 0.00 0.00 78 1000.5
20260510053857 62 264 3.0 3.0 0.00 0.00 0.00 78 1000.1
20260510053353 63 260 3.0 3.0 0.00 0.00 0.00 77 1000.1
20260510052850 63 255 5.0 6.0 0.00 0.00 0.00 77 1000.1
20260510052346 63 238 2.0 2.0 0.00 0.00 0.00 77 1000.1
20260510051842 62 258 5.0 5.0 0.00 0.00 0.00 77 999.8
20260510051339 62 252 2.0 2.0 0.00 0.00 0.00 77 1000.1
20260510050836 62 270 0.0 0.0 0.00 0.00 0.00 77 1000.1
20260510050332 63 287 2.0 2.0 0.00 0.00 0.00 76 999.8
20260510045829 63 264 1.0 1.0 0.00 0.00 0.00 76 999.8
20260510045326 63 270 1.0 1.0 0.00 0.00 0.00 76 999.8
20260510044823 63 270 3.0 3.0 0.00 0.00 0.00 76 1000.1
20260510044320 63 252 2.0 2.0 0.00 0.00 0.00 75 999.8
20260510043816 63 255 2.0 2.0 0.00 0.00 0.00 75 999.8
20260510043312 63 276 0.0 0.0 0.00 0.00 0.00 75 999.8
20260510042810 63 271 3.0 3.0 0.00 0.00 0.00 74 999.8
20260510042307 63 270 1.0 1.0 0.00 0.00 0.00 74 999.8
20260510041802 63 312 2.0 2.0 0.00 0.00 0.00 74 999.3
20260510041259 62 272 2.0 2.0 0.00 0.00 0.00 73 999.8
20260510040756 63 258 1.0 1.0 0.00 0.00 0.00 73 999.8
20260510040248 63 276 2.0 2.0 0.00 0.00 0.00 72 999.8
20260510035743 63 270 0.0 0.0 0.00 0.26 0.26 71 999.8
20260510035239 63 276 2.0 2.0 0.00 0.26 0.26 71 999.3
20260510034734 63 270 0.0 0.0 0.00 0.26 0.26 71 999.3
20260510034233 63 270 2.0 2.0 0.00 0.26 0.26 70 999.0
20260510033729 64 258 2.0 2.0 0.00 0.26 0.26 69 999.0
20260510033226 63 265 0.0 0.0 0.00 0.26 0.26 68 999.3
20260510032722 64 216 1.0 1.0 0.00 0.26 0.26 69 999.0
20260510032218 64 266 0.0 0.0 0.00 0.26 0.26 68 999.3
20260510031713 64 276 1.0 1.0 0.00 0.26 0.26 67 999.3
20260510031210 64 241 0.0 0.0 0.00 0.26 0.26 67 999.3
20260510030709 64 234 1.0 1.0 0.00 0.26 0.26 68 999.3
20260510030207 64 234 0.0 0.0 0.00 0.26 0.26 67 999.0
20260510025704 64 234 0.0 0.0 0.00 0.26 0.26 67 999.3
20260510025201 64 234 1.0 1.0 0.00 0.26 0.26 67 999.3
20260510024659 64 258 2.0 2.0 0.00 0.26 0.26 66 999.3
20260510024155 64 258 2.0 2.0 0.00 0.26 0.26 66 999.3
20260510023650 64 234 2.0 2.0 0.00 0.26 0.26 67 999.0
20260510023148 64 270 0.0 0.0 0.00 0.26 0.26 68 999.0
20260510022644 64 271 1.0 1.0 0.00 0.26 0.26 67 999.0
20260510022138 64 265 0.0 0.0 0.00 0.26 0.26 67 999.0
20260510021628 64 265 0.0 0.0 0.00 0.26 0.26 68 998.7
20260510021126 64 265 0.0 0.0 0.00 0.26 0.26 68 999.0
20260510020620 64 265 1.0 1.0 0.00 0.26 0.26 69 998.7
20260510020116 64 265 0.0 0.0 0.00 0.26 0.26 68 998.7
20260510015612 64 265 1.0 1.0 0.00 0.26 0.26 69 998.3
20260510015108 64 265 0.0 0.0 0.00 0.26 0.26 69 998.7
20260510014604 63 267 0.0 0.0 0.00 0.26 0.26 69 998.3
20260510014101 63 267 0.0 0.0 0.00 0.26 0.26 68 998.3
20260510013555 64 267 0.0 0.0 0.00 0.26 0.26 69 998.3
20260510013052 64 267 0.0 0.0 0.00 0.26 0.26 68 998.0
20260510012546 64 267 0.0 0.0 0.00 0.26 0.26 67 998.3
20260510012042 64 267 0.0 0.0 0.00 0.26 0.26 68 998.3
20260510011542 64 267 0.0 0.0 0.00 0.26 0.26 67 998.0
20260510011038 64 267 0.0 0.0 0.00 0.26 0.26 67 998.0
20260510010535 65 267 0.0 0.0 0.00 0.26 0.26 66 998.0
20260510010032 65 266 0.0 0.0 0.00 0.26 0.26 66 998.3
20260510005527 66 266 0.0 0.0 0.00 0.26 0.26 64 998.0
20260510005026 66 266 0.0 0.0 0.00 0.26 0.26 62 998.0
20260510004522 67 266 0.0 0.0 0.00 0.26 0.26 61 997.6
20260510004020 67 266 0.0 0.0 0.00 0.26 0.26 60 997.6
20260510003516 68 266 0.0 0.0 0.00 0.26 0.26 58 998.0
20260510003012 69 258 1.0 1.0 0.00 0.26 0.26 57 998.0
20260510002508 69 228 2.0 2.0 0.00 0.26 0.26 56 997.6
20260510002005 69 267 1.0 1.0 0.00 0.26 0.26 56 997.6
20260510001502 70 216 1.0 1.0 0.00 0.26 0.26 55 997.6
20260510001000 71 266 2.0 2.0 0.00 0.26 0.26 54 997.3
20260510000455 71 265 2.0 2.0 0.00 0.26 0.26 54 997.3
20260509235952 71 272 2.0 2.0 0.00 0.26 0.26 52 997.3
20260509235449 72 250 3.0 3.0 0.00 0.26 0.26 52 997.3
20260509234945 72 268 3.0 4.0 0.00 0.26 0.26 52 997.3
20260509234442 72 96 2.0 2.0 0.00 0.26 0.26 51 997.3
20260509233940 73 253 3.0 3.0 0.00 0.26 0.26 50 997.3
20260509233437 73 312 6.0 7.0 0.00 0.26 0.26 49 997.0
20260509232933 73 312 6.0 7.0 0.00 0.26 0.26 49 997.0
20260509232431 74 264 1.0 1.0 0.00 0.26 0.26 50 997.0
20260509231926 73 256 4.0 4.0 0.00 0.26 0.26 49 997.0
20260509231424 73 195 4.0 5.0 0.00 0.26 0.26 50 997.0
20260509230922 74 250 6.0 6.0 0.00 0.26 0.26 49 997.0
20260509230418 74 258 3.0 3.0 0.00 0.26 0.26 51 997.0
20260509225914 74 264 6.0 6.0 0.00 0.26 0.26 50 997.0
20260509225411 74 256 3.0 3.0 0.00 0.26 0.26 50 997.0
20260509224907 74 233 5.0 5.0 0.00 0.26 0.26 49 997.0
20260509224402 74 252 2.0 2.0 0.00 0.26 0.26 49 997.0
20260509223900 74 263 6.0 6.0 0.00 0.26 0.26 49 997.0
20260509223351 73 256 5.0 5.0 0.00 0.26 0.26 49 997.0
20260509222848 74 320 2.0 2.0 0.00 0.26 0.26 49 997.0
20260509222343 75 263 3.0 3.0 0.00 0.26 0.26 51 997.0
20260509221839 74 276 4.0 5.0 0.00 0.26 0.26 48 997.0
20260509221336 74 246 2.0 2.0 0.00 0.26 0.26 51 997.0
20260509220831 74 275 4.0 4.0 0.00 0.26 0.26 49 997.0
20260509220328 74 262 3.0 3.0 0.00 0.26 0.26 50 997.0
20260509215823 74 284 3.0 3.0 0.00 0.26 0.26 50 997.3
20260509215320 73 295 3.0 4.0 0.00 0.26 0.26 50 997.0
20260509214817 73 204 4.0 4.0 0.00 0.26 0.26 51 997.3
20260509214314 74 186 3.0 3.0 0.00 0.26 0.26 49 997.0
20260509213811 73 24 2.0 2.0 0.00 0.26 0.26 52 997.3
20260509213307 73 206 2.0 2.0 0.00 0.26 0.26 53 997.3
20260509212805 74 114 2.0 2.0 0.00 0.26 0.26 53 997.3
20260509212305 74 268 3.0 4.0 0.00 0.26 0.26 51 997.3
20260509211757 73 140 2.0 2.0 0.00 0.26 0.26 54 997.6
20260509211254 72 348 4.0 5.0 0.00 0.26 0.26 55 997.3
20260509210750 73 294 7.0 7.0 0.00 0.26 0.26 53 997.6
20260509210248 73 126 1.0 1.0 0.00 0.26 0.26 53 997.6
20260509205747 72 282 2.0 2.0 0.00 0.26 0.26 55 997.6
20260509205242 73 264 4.0 4.0 0.00 0.26 0.26 54 997.6